CZ-6A DEB, 54267

Orbit data source: Space-Track

CZ-6A DEB, 54267 is space debris in SSO originally from a launch on Fri, 11 Nov 2022 UTC launched from the Taiyaun Space Center, China (TSC). Debris objects in space refer to the collection of defunct objects orbiting the Earth. Examples of debris include non-operational satellites, rocket bodies, and fragments generated from explosions, collisions, or faulty payload assembly.

Loading next visibility...
Identifier
54267, 2022-151J
Orbit
SSO
Country
Flag of CNCN / PRC
Related business
Manufacturer
SAST
Mission
Spacecraft
Bus & Motor
Unknown
Mass
Unknown
Launch date (UTC)
2022-11-11 (3 years ago)
Launch vehicle
Unknown
Launch site
Taiyaun Space Center, China (TSC)
Object type
Payload
Rocket body
Debris
Shape & HBR
Unknown shape, 0.2 m
Radar Cross Section
Small (<0.1 m²)

Expand to show TLE details & history
Last TLE update: 9 hours ago

TLE from 9 hours ago
0 CZ-6A DEB
1 54267U 22151J   26130.18319404  .00001426  00000-0  38785-3 0  9994
2 54267  98.7993 204.6977 0087341  30.2578 330.3615 14.46940610183709
Epoch: 2026-05-10T04:23Z
TLE epoch observation values (Epoch: 2026-05-10T04:23:47.965Z)
Latitude
-0.00003°
Longitude
-89.24208°
Altitude
684.727 km
Speed
7.543 km/s
True Right ascension
13h 38m 47s
True Declination
0° 00' 00"
Sunlit
Object was in full shadow at epoch
Visualization orbit readout
Latitude
Unknown
Longitude
Unknown
Altitude
Unknown
Speed
Unknown
Apparent Right ascension
Unknown
Apparent Declination
Unknown
Sunlit
N/A
Visualization observer readout
Local Sidereal Time
21:27:17
Azimuth
Unknown
Elevation
Unknown
Doppler factor
Unknown
Orbital elements
Apogee altitude
794.893 km
Perigee altitude
670.678 km
Semi-major axis
7,110.922 km
Eccentricity
0.00873
Inclination
98.7993°
RAAN
204.6977°
Arg. of periapsis
30.2578°
True anomaly
329.86182°
Mean anomaly
330.3615°
Eccentric anomaly
330.11214°
Mean motion
3.61955 °/min
Orbital period
99.46 mins
BSTAR
0.00038785
Loading maneuver chart data...
Computing Atmospheric mass density...
Loading historical data...
Loading historical data...
Loading historical data...
Loading historical data...
Loading historical data...
Loading historical data...
Loading historical data...

Documentation

Showing up to 5 results
|